Location: Boston
(42.3580°N, 71.0600°W)
Time: 05:31:08
(UTC-04:00)

Tiangong 2 - Pass Details

Date: 16 October 2017
Orbit: 388 x 391 km, 42.8° (Epoch: 23 October)

Event Time Altitude Azimuth Distance (km) Brightness Sun altitude
Exits shadow 04:40:45 23° 84° (E) 869 3.5 -26.1°
Drops below altitude 10° 04:42:09 10° 87° (E) 1,420 4.9 -25.8°
Sets 04:44:14 0° 88° (E) 2,276 6.3 -25.5°
